Wind_Speed
2 5 9 12 9 1 2 2 2 2 2 4 8 15 16 13 15 17 16 11 11 12 11 9 4 1 2 5 8 11 12 14 17 18 19 19 19 21 20 19 20 21 20 20
4 9 2 7 5 4 3 2 3 2 2 4 7 21 15 5 7 11 15 14 14 14 12 10 5 1 4 7 10 13 15 17 18 17 18 17 19 20 21 21 21 20 20 19
6 2 8 3 4 5 2 3 2 1 5 1 9 8 4 3 3 5 8 11 13 14 12 8 3 3 6 9 11 12 15 17 17 17 18 18 19 19 20 19 19 18 18 20
2 5 5 4 4 4 3 3 5 2 4 3 4 6 4 3 5 7 9 11 13 12 7 4 2 4 8 9 10 13 16 18 17 17 17 18 20 21 21 23 22 21 20 21
4 10 7 4 0 3 2 3 4 2 1 3 3 3 4 2 7 12 12 12 13 11 7 3 3 5 8 9 12 14 17 18 18 18 17 18 20 21 22 23 23 23 22 21
3 2 1 2 4 3 12 4 3 2 0 3 4 3 5 4 2 4 8 13 13 12 7 3 3 5 8 10 12 15 16 18 18 17 17 18 20 22 23 23 25 25 23 23
3 4 2 3 5 4 2 3 1 2 2 3 3 3 10 4 3 2 4 8 13 11 7 4 5 6 7 10 13 15 16 19 18 18 18 18 20 22 24 23 22 25 25 24
6 5 9 6 2 3 7 2 3 5 3 1 2 6 3 1 1 4 5 3 9 11 6 5 4 5 8 10 13 15 18 19 18 18 19 19 19 20 22 22 24 26 26 27
6 3 3 2 1 1 5 6 2 6 1 1 2 6 12 7 12 11 9 7 11 12 6 5 5 5 7 9 12 15 16 18 18 18 19 20 21 21 24 25 25 27 27 27
3 3 1 4 2 5 2 5 3 1 4 5 3 5 4 6 9 8 9 13 12 12 10 4 4 6 5 7 11 13 14 16 18 18 18 20 22 22 23 24 26 26 28 29
3 2 3 4 9 10 5 4 0 0 2 3 2 4 5 7 7 7 7 8 9 12 12 5 5 5 6 7 10 13 14 16 17 18 19 21 22 23 22 23 24 26 27 29
4 2 4 3 1 1 2 4 7 3 6 1 1 7 3 6 5 4 6 7 8 9 10 6 5 5 6 7 10 11 13 14 16 18 19 21 22 22 22 23 24 25 29 30
6 4 3 2 2 0 6 7 4 4 1 8 5 4 1 3 6 8 9 8 7 7 7 6 5 5 6 7 9 10 11 14 15 17 19 21 22 22 22 24 25 28 28 29
5 2 4 7 2 4 6 11 12 4 4 6 8 6 9 8 8 7 10 11 8 6 7 6 6 5 6 8 8 9 11 13 15 16 17 20 21 21 23 24 25 25 27 27
5 5 4 4 3 2 3 6 14 12 9 9 2 11 15 3 7 7 5 5 6 7 6 6 6 5 7 8 7 9 11 13 15 17 21 23 22 22 25 25 25 24 24 25
3 2 1 3 1 3 6 9 14 17 10 12 16 21 14 16 5 6 6 6 7 6 6 6 6 6 8 9 7 7 9 12 15 17 20 23 22 24 24 25 24 23 24 26
7 7 4 5 4 6 12 13 16 9 9 12 13 22 4 5 5 6 6 6 8 6 6 7 8 8 10 10 6 6 8 10 12 15 19 21 22 24 24 24 23 24 23 24
7 6 2 2 4 8 2 2 7 18 14 18 12 13 6 5 4 7 10 10 8 7 7 7 7 10 11 9 5 4 5 7 10 12 16 20 22 23 24 23 22 22 22 23
5 5 3 4 7 9 12 6 8 9 9 21 23 22 11 5 5 6 3 7 4 4 6 9 15 13 11 10 7 4 2 4 6 9 12 17 19 20 22 23 21 21 22 22
2 1 2 3 4 6 2 1 2 3 6 2 16 11 10 5 3 2 2 3 3 6 6 11 15 13 12 11 9 5 3 2 3 6 9 12 14 15 16 17 17 21 21 20
6 2 8 5 4 8 9 5 5 3 2 1 6 6 11 6 4 2 1 3 2 4 12 12 16 15 16 13 11 8 6 6 3 3 6 7 9 11 11 12 15 17 17 19
9 9 5 4 3 10 8 6 6 2 1 3 4 4 8 5 3 4 6 6 6 7 9 15 14 16 19 17 14 12 11 9 6 2 1 3 6 8 9 11 13 15 15 16
6 7 7 11 8 2 13 1 4 1 2 2 2 4 7 6 8 7 6 6 7 8 14 15 17 14 18 21 19 14 15 13 9 7 3 1 2 4 7 10 11 11 13 13
6 4 3 3 8 14 10 8 9 5 6 3 4 4 6 12 11 11 8 7 7 8 13 17 17 16 16 24 24 23 16 16 13 10 7 3 2 5 8 10 12 12 13 12
4 14 7 5 9 6 11 13 11 7 8 10 8 9 11 10 12 11 9 8 8 8 13 19 19 19 22 25 29 26 21 19 17 14 12 9 7 4 4 7 7 8 10 9
7 7 6 4 10 2 2 4 6 8 8 9 7 5 6 8 11 8 9 8 6 6 12 14 18 20 23 25 30 29 27 25 21 16 13 11 7 5 4 4 4 8 8 7
Wind_Direction
140 209 213 209 215 301 144 192 223 142 113 282 254 274 271 254 238 239 248 223 194 185 174 176 167 160 357 349 342 335 325 325 327 320 316 310 303 301 293 286 283 283 281 278
154 231 169 115 138 161 170 193 223 161 136 303 311 293 289 257 241 235 222 198 183 176 185 187 198 276 355 340 340 337 333 326 321 314 308 299 297 292 288 285 280 279 280 278
208 101 140 138 166 177 193 229 192 291 304 154 313 270 214 178 204 180 176 174 178 184 188 193 217 338 341 341 336 327 324 321 318 314 310 304 299 294 290 288 286 282 278 278
219 132 165 170 210 208 227 117 109 39 316 286 11 293 247 192 220 205 170 178 181 183 189 198 298 327 332 331 328 326 323 321 318 315 308 304 299 296 295 294 291 287 281 275
147 166 167 187 255 188 107 105 93 96 69 306 134 233 257 203 219 205 192 191 191 190 191 204 276 313 320 330 332 323 318 317 315 312 310 306 300 296 296 294 294 292 289 280
79 16 190 91 77 63 137 107 76 81 175 240 117 211 268 205 183 137 198 203 200 198 205 236 292 308 321 332 325 319 316 313 313 314 312 306 300 300 297 295 294 291 288 285
145 158 138 155 117 113 192 155 237 238 200 244 127 210 263 249 203 171 155 200 202 198 217 253 280 305 319 323 322 319 317 314 319 316 312 307 300 296 293 293 291 290 286 281
170 224 181 159 236 196 184 230 219 234 218 9 138 233 239 288 335 246 260 248 201 202 214 261 280 295 306 310 316 322 318 319 321 317 313 310 305 300 294 289 287 285 282 280
183 188 93 45 117 243 162 213 83 104 69 265 236 268 266 249 249 235 240 211 207 208 216 265 262 275 286 301 320 316 316 318 319 319 318 315 311 305 299 295 291 288 287 283
178 137 208 143 152 65 201 143 130 258 199 232 233 272 243 206 196 197 204 219 223 219 219 253 263 262 284 304 315 314 317 317 320 321 320 315 312 307 303 300 296 292 290 288
162 244 129 162 205 184 145 204 135 44 270 225 271 245 203 205 181 195 212 218 228 230 226 245 269 271 295 311 317 317 319 323 323 326 326 322 318 312 308 304 302 300 298 295
176 119 167 194 71 318 235 220 191 211 191 224 318 268 174 227 206 213 229 233 237 240 231 242 266 280 302 307 312 319 317 325 328 330 330 327 322 317 316 312 308 308 302 302
173 208 134 203 199 133 217 196 175 106 108 194 181 242 126 218 229 232 243 247 247 255 244 260 237 251 281 290 299 309 321 328 332 333 333 332 326 322 321 318 318 318 312 312
154 184 238 251 38 121 193 195 189 182 179 163 227 287 256 228 234 224 245 258 263 249 246 233 225 233 258 274 290 307 332 335 334 332 334 333 327 330 331 327 326 322 326 324
189 210 190 250 246 241 242 189 189 207 218 209 227 206 252 202 227 245 238 257 262 256 242 220 215 225 251 266 281 317 338 341 341 336 345 340 330 338 347 342 336 332 338 340
298 188 140 276 134 241 261 231 198 222 242 255 268 279 259 268 245 263 258 243 240 234 226 217 211 221 241 254 275 314 333 348 350 347 352 353 348 353 353 351 341 340 347 351
176 162 163 230 55 336 277 226 206 207 207 210 222 241 128 239 215 249 260 242 262 243 222 204 207 214 224 238 259 305 334 351 355 358 1 1 356 1 2 1 349 353 351 352
163 142 126 127 140 232 302 148 213 221 235 215 255 258 226 221 233 251 237 245 246 225 210 203 199 201 218 235 248 288 330 350 358 2 359 2 6 6 10 11 356 358 356 358
175 157 145 179 217 308 293 201 174 179 261 212 222 245 255 249 282 264 216 208 223 204 199 193 198 199 208 215 225 239 304 331 353 357 355 354 360 6 10 8 0 3 3 4
146 330 251 164 205 233 310 129 147 142 275 292 208 225 208 182 230 240 193 202 229 213 206 187 186 196 207 220 213 215 229 280 316 341 352 352 353 4 11 11 11 15 12 11
140 174 204 189 225 284 243 149 149 173 313 76 180 171 162 188 215 196 169 226 222 211 200 192 193 205 215 207 204 214 218 231 252 323 344 354 2 7 21 27 30 29 22 26
164 159 183 159 193 261 145 97 198 196 118 133 174 185 200 236 266 239 240 246 214 206 201 202 204 215 216 207 203 211 223 215 204 229 313 9 19 11 20 38 46 49 44 36
200 194 181 196 206 39 195 29 232 19 129 181 183 193 222 249 260 259 254 239 232 203 204 207 211 216 220 213 207 209 216 207 198 186 194 248 43 31 28 34 38 39 45 50
227 167 201 151 229 232 231 250 245 245 238 231 216 207 217 262 269 270 273 254 236 209 207 206 205 213 216 214 214 217 206 201 206 194 187 201 0 29 34 30 30 28 25 27
172 151 164 263 278 240 230 226 239 243 238 251 246 230 235 246 259 257 263 253 237 226 211 204 206 213 219 214 218 216 206 199 207 211 196 197 188 165 117 82 55 49 47 61
189 161 174 204 220 220 226 171 175 212 226 229 228 243 235 222 247 248 254 250 236 230 217 213 215 215 220 215 219 216 212 204 201 213 216 206 199 187 153 131 96 62 64 70
Height
783 780 772 766 771 777 773 772 771 781 796 792 774 769 760 758 763 765 761 765 767 771 776 779 780 780 780 779 779 777 776 775 771 768 765 760 757 755 752 751 748 745 742 740
781 774 776 782 783 779 777 774 772 784 796 792 775 760 749 757 757 757 755 757 761 768 773 776 777 778 778 777 775 774 772 771 768 765 762 759 754 750 747 745 742 740 736 734
766 776 785 782 783 778 780 774 779 781 786 793 782 746 746 752 756 757 754 754 760 763 767 772 775 775 774 773 772 771 770 767 765 762 757 753 749 745 742 739 737 734 731 729
772 787 783 781 778 779 776 788 788 789 777 767 785 759 735 747 749 752 753 756 759 763 769 771 771 771 772 772 770 768 765 763 760 757 753 749 746 741 737 734 731 727 725 722
768 782 782 779 779 784 783 795 792 793 787 791 782 778 724 752 740 740 745 751 755 760 765 767 769 769 769 768 765 764 762 759 756 753 749 745 740 737 733 730 726 722 718 716
786 789 783 781 795 793 798 796 797 797 791 776 783 778 722 727 730 736 740 746 751 757 762 763 764 766 765 765 764 763 759 756 752 748 744 740 736 732 729 725 721 716 712 709
784 783 790 788 788 798 795 788 771 771 775 756 797 787 730 731 738 737 739 742 746 753 758 760 762 764 764 763 762 759 756 752 748 743 739 735 732 728 724 720 716 712 707 703
761 767 783 785 781 774 787 787 762 754 754 758 802 766 723 736 742 743 746 745 746 751 755 758 761 761 761 760 759 755 752 748 744 740 735 731 727 722 718 713 710 705 700 696
761 764 791 792 791 790 792 787 793 809 854 787 754 749 732 735 735 739 741 743 745 747 752 756 758 758 758 757 754 752 749 744 741 736 730 725 722 717 712 707 703 698 693 688
752 769 790 794 793 795 788 795 781 787 762 759 749 762 725 724 723 732 738 737 739 743 748 752 755 756 754 753 752 750 746 742 736 732 727 722 717 712 707 701 695 690 685 681
759 756 792 791 782 770 793 786 794 779 773 744 744 724 723 714 719 730 729 731 735 738 742 747 751 751 751 750 749 747 744 738 734 728 723 718 712 707 702 696 690 684 678 673
761 764 770 771 782 781 778 771 770 745 769 787 778 735 724 717 721 727 729 733 734 737 739 743 746 747 747 747 746 744 741 735 731 726 720 715 709 704 697 690 684 678 671 665
764 762 767 772 779 784 776 771 774 793 780 786 746 716 726 727 729 729 731 729 732 735 737 739 742 744 744 744 744 742 738 733 728 724 718 711 706 700 692 685 678 672 665 658
764 767 755 725 732 750 765 762 768 765 759 755 739 725 714 717 728 727 727 727 729 733 735 737 739 740 740 742 740 739 733 730 726 722 716 710 704 696 689 682 675 669 662 654
760 753 771 761 759 758 751 755 764 768 746 728 719 742 709 724 727 727 729 730 731 731 731 733 734 735 737 738 736 734 731 727 724 719 713 707 701 694 687 680 674 667 660 653
764 757 767 756 765 767 761 749 757 757 747 756 739 734 709 703 714 724 725 728 727 727 727 728 730 732 733 734 733 730 728 725 721 717 712 705 699 693 687 681 674 667 660 653
767 761 761 741 767 767 746 737 740 743 741 733 733 701 711 714 720 721 719 721 718 719 721 724 725 727 729 730 729 727 725 722 719 715 710 705 700 693 688 682 675 669 662 655
760 762 761 756 772 738 698 713 710 710 707 725 716 707 708 716 717 718 714 715 713 714 716 718 720 723 725 726 725 724 723 720 717 713 710 705 700 695 690 684 678 672 665 658
758 756 771 751 744 719 691 714 714 714 687 694 702 692 700 708 710 699 704 707 705 707 707 709 713 718 722 722 722 722 720 719 717 713 710 706 702 698 692 687 682 675 669 663
761 757 744 779 740 718 688 707 714 709 690 683 685 691 698 706 688 688 701 704 703 706 706 706 709 715 717 718 718 718 717 716 715 713 710 707 703 699 695 691 687 681 675 670
761 766 750 755 741 728 699 710 716 695 679 687 691 691 698 693 691 696 700 701 702 702 704 705 706 709 711 714 714 713 713 712 712 711 710 708 704 700 697 693 689 684 680 674
734 745 749 761 749 726 704 714 700 679 686 687 693 693 694 690 691 696 696 696 697 700 702 702 704 704 707 709 709 709 710 709 708 708 708 707 706 702 699 695 690 686 682 679
715 708 721 718 703 693 693 686 686 689 685 687 689 691 692 692 686 686 686 688 690 692 696 697 697 699 702 703 704 705 704 706 705 704 704 705 704 703 700 697 693 690 686 682
719 716 712 713 677 690 693 688 689 688 687 688 688 689 690 686 682 682 683 683 683 684 687 689 692 693 694 696 697 698 700 702 704 702 701 702 705 704 703 701 698 696 694 690
697 703 708 706 684 685 684 681 678 682 684 685 684 685 683 682 679 678 679 677 676 676 677 680 682 683 683 687 690 692 694 696 699 700 697 698 698 700 700 700 699 697 696 693
691 688 682 676 668 665 666 670 673 679 678 677 678 677 675 676 674 672 672 669 668 668 669 672 673 674 675 679 683 685 688 689 692 698 698 697 697 699 700 701 701 699 698 697